AirNav   Pilot Hours Calculator
 
 688 users online  

60F Seymour Municipal Airport
Seymour, Texas, USA

GOING TO SEYMOUR?


FAA INFORMATION EFFECTIVE 11 AUGUST 2022

Location

FAA Identifier: 60F
Lat/Long: 33-38-54.6600N 099-15-40.7000W
33-38.911000N 099-15.678333W
33.6485167,-99.2613056
(estimated)
Elevation: 1344 ft. / 409.7 m (surveyed)
Variation: 07E (1995)
From city: 3 miles N of SEYMOUR, TX
Time zone: UTC -5 (UTC -6 during Standard Time)
Zip code: 76380

Airport Operations

Airport use: Open to the public
Activation date: 10/1965
Control tower: no
ARTCC: FORT WORTH CENTER
FSS: FORT WORTH FLIGHT SERVICE STATION
NOTAMs facility: FTW (NOTAM-D service available)
Attendance: UNATNDD
Wind indicator: lighted
Segmented circle: yes
Lights: SS-SR
Beacon: white-green (lighted land airport)
Operates sunset to sunrise.

Airport Communications

CTAF: 122.9
  • APCH/DEP CTL SVC PRVDD BY FORT WORTH ARTCC (ZFW) ON FREQS 133.5/350.35 (WICHITA FALLS NR 2 RCAG).

Nearby radio navigation aids

VOR radial/distance  VOR name  Freq  Var
SPSr229/39.0WICHITA FALLS VORTAC112.7010E

 
NDB name  Hdg/Dist  Freq  Var  ID
SCOTLAND253/39.434405ESKB ... -.- -...

Airport Services

Parking: tiedowns
Airframe service: NONE
Powerplant service: NONE
Bottled oxygen: NONE
Bulk oxygen: NONE

Runway Information

Runway 17/35

Dimensions: 4300 x 50 ft. / 1311 x 15 m
Surface: asphalt, in excellent condition
Weight bearing capacity: 
Single wheel: 4.0
Runway edge lights: medium intensity
RUNWAY 17  RUNWAY 35
Latitude: 33-39.265333N33-38.556667N
Longitude: 099-15.678333W099-15.678333W
Elevation: 1344.0 ft.1337.9 ft.
Traffic pattern: leftleft
Runway heading: 173 magnetic, 180 true353 magnetic, 000 true
Markings: nonprecision, in good conditionnonprecision, in good condition
Touchdown point: yes, no lightsyes, no lights
Obstructions: 4 ft. fence, lighted, 200 ft. from runway, 202 ft. right of centerline
4 FT FENCE 200 L & R, 0-199 FT DSTC.
25 ft. hangar, lighted, 207 ft. from runway, 249 ft. right of centerline
4 FT FENCE 203 FT L AT RWY THR; 20 FT HNGRS 75 FT DSTC, 240 FT R.

Airport Ownership and Management from official FAA records

Ownership: Publicly-owned
Owner: CITY OF SEYMOUR
PO BOX 31
SEYMOUR, TX 76380
Phone 940-889-3148
Manager: JEFF BRASHER
PO BOX 31
SEYMOUR, TX 76380
Phone 940-889-0025
CITY ADMINISTRATOR

Airport Operational Statistics

Aircraft based on the field: 10
Single engine airplanes: 9
Multi engine airplanes: 1
    
Aircraft operations: avg 63/week *
67% local general aviation
33% transient general aviation
* for 12-month period ending 30 August 2021

Additional Remarks

FOR CD CTC FORT WORTH ARTCC AT 817-858-7584.

Instrument Procedures

NOTE: All procedures below are presented as PDF files. If you need a reader for these files, you should download the free Adobe Reader.

NOT FOR NAVIGATION. Please procure official charts for flight.
FAA instrument procedures published for use from 11 August 2022 at 0901Z to 08 September 2022 at 0900z.

 
IAPs - Instrument Approach Procedures
RNAV (GPS) RWY 17 **CHANGED**   download (170KB)
NOTE: Special Take-Off Minimums/Departure Procedures apply   download (113KB)

Other nearby airports with instrument procedures:

KONY - Olney Municipal Airport (28 nm SE)
F05 - Wilbarger County Airport (35 nm N)
15F - Haskell Municipal Airport (36 nm SW)
F14 - Wichita Valley Airport (37 nm NE)
KCWC - Kickapoo Downtown Airport (41 nm E)
 
Loc | Ops | Rwys | IFR | FBO | Links
Com | Nav | Svcs | Stats | Notes
Area around 60F (Seymour Municipal Airport)
 
Road maps at: MapQuest Bing Google
 
Aerial photo
WARNING: Photo may not be current or correct
Aerial photo of 60F (Seymour Municipal Airport)
Photo by Victor Estrada
Taken in October 2007

Do you have a better or more recent aerial photo of Seymour Municipal Airport that you would like to share? If so, please send us your photo.

 
Sectional chart

 
Airport distance calculator
Flying to Seymour Municipal Airport? Find the distance to fly.

From to 60F

Sunrise and sunset
Times for 13-Aug-2022
 Local
(UTC-5)
 Zulu
(UTC)
Morning civil twilight06:3211:32
Sunrise06:5911:59
Sunset20:2501:25
Evening civil twilight20:5101:51

Current date and time
Zulu (UTC)  13-Aug-2022 11:01:27
Local (UTC-5)  13-Aug-2022 06:01:27
 
METAR
KF05 
35nm N 
131055Z AUTO 04004KT 10SM CLR 24/16 A3007 RMK AO2 T02370157
KCWC 
40nm E 
121640Z AUTO 14004KT 10SM CLR 32/19 A3010 RMK AO2 T03210194
KSPS 
43nm NE 
131052Z AUTO 09003KT 10SM CLR 24/18 A3004 RMK AO2 SLP158 T02390183
KFDR 
44nm N 
131053Z AUTO 06006KT 10SM CLR 24/16 A3003 RMK AO2 SLP149 T02390161
KRPH 
48nm SE 
131055Z AUTO 00000KT 10SM CLR 26/20 A3003 RMK AO2 SLP765 T02580197 $
TAF
KSPS 
43nm NE 
130520Z 1306/1406 11007KT P6SM SKC FM131300 15010KT P6SM SCT080
NOTAMs
Click for the latest NOTAMs
NOTAMs are issued by the DoD/FAA and will open in a separate window not controlled by AirNav.

 

 
 

Would you like to see your business listed on this page?

 If your business provides an interesting product or service to pilots, flight crews, aircraft, or users of the Seymour Municipal Airport, you should consider listing it here.  To start the listing process, click on the button below
 
Add a business
 

Other Pages about Seymour Municipal Airport

Update a link
 
Copyright © AirNav, LLC. All rights reserved. Privacy Policy  Contact